Vorticity
6 6 6 7 7 7 7 6 7 6 5 5 4 4 3 1 1 2 4 4 4 2 2 0 0 4 8 12 13 13 13 12 9 5 5 6 5 6 6 7 7 7 6 7 6 7 6 6 12 11 9 7 0 5 8 3 0 -3 7 17 14 10 6 -0 -2 6 7 3 3 3 11 6 -3 6 5 4 6 3 7 8 7 5 3 6 7 8 8 7
6 6 6 7 7 7 7 7 7 7 7 6 6 5 3 1 1 2 4 5 4 3 3 0 1 5 9 14 15 14 12 12 13 7 5 6 5 5 5 6 7 6 6 7 7 7 5 7 12 9 6 3 -2 6 9 5 4 -2 2 11 20 26 21 6 1 12 8 -0 4 3 2 1 -0 7 6 5 6 6 6 4 3 2 2 5 7 9 8 7
5 6 6 6 7 7 7 7 7 7 7 7 6 5 2 1 1 2 4 5 4 4 2 0 2 6 11 16 16 14 12 12 14 11 7 6 6 6 6 7 7 6 6 7 6 7 6 6 11 8 4 2 -2 3 4 2 3 2 2 7 11 14 20 14 5 11 12 5 3 1 2 3 3 4 3 3 5 5 4 5 6 4 3 4 6 8 8 6
5 5 6 6 6 6 7 7 7 7 6 7 6 5 2 0 1 3 5 5 4 3 2 1 3 8 14 18 18 15 13 11 11 12 10 6 6 6 7 7 8 7 7 8 7 8 6 5 10 8 5 5 1 1 4 4 2 2 3 6 5 0 4 8 8 11 15 12 6 2 2 2 2 2 3 4 4 2 3 7 7 6 5 5 6 6 8 7
5 5 5 5 6 6 6 7 7 7 7 7 6 4 2 0 2 4 5 5 4 3 2 3 5 11 17 19 18 14 13 11 10 13 13 9 6 5 6 6 8 8 7 8 8 8 6 6 9 7 7 8 4 1 3 5 2 3 6 4 1 -0 0 1 5 8 15 15 8 8 4 3 5 0 3 7 3 -2 3 6 3 7 6 6 7 4 8 8
5 5 5 5 5 6 7 7 7 7 7 7 6 3 1 1 4 5 6 4 3 3 3 4 8 15 19 19 15 11 14 14 12 12 13 13 10 6 7 7 8 8 8 8 7 9 6 7 7 4 7 6 3 2 -0 2 1 1 6 5 -0 0 2 3 2 -0 10 13 11 17 10 7 11 7 7 8 4 0 5 5 1 7 6 7 8 3 6 6
5 5 5 5 5 6 6 7 7 7 8 7 5 2 1 2 5 6 5 4 4 3 3 6 11 18 19 15 12 12 15 14 11 11 10 12 14 9 5 6 7 7 9 8 7 8 5 7 5 2 8 6 6 3 -2 1 2 2 5 7 4 -0 0 4 5 -1 4 7 7 14 9 8 13 11 10 8 8 9 13 12 3 5 4 5 9 4 4 5
5 5 5 5 5 6 7 7 7 7 7 6 4 2 2 4 6 6 4 4 4 3 4 8 14 19 16 13 13 13 14 13 12 13 10 9 13 12 7 5 7 7 9 9 9 7 4 6 4 7 10 7 8 3 3 5 2 5 4 3 4 1 1 1 5 6 5 6 3 3 2 4 6 4 5 4 7 10 13 16 8 5 3 3 8 6 4 6
6 5 5 5 5 6 7 7 8 8 7 6 3 2 3 5 6 5 4 4 4 3 6 10 16 17 13 12 12 10 12 13 13 13 12 10 10 13 10 6 7 8 8 9 9 4 4 8 8 12 8 3 6 0 11 14 1 3 4 3 4 2 3 0 4 6 4 10 8 5 2 3 4 1 4 3 5 8 5 11 15 9 3 5 7 6 5 6
6 6 6 6 5 6 7 8 8 8 7 4 2 3 4 5 6 4 4 5 3 4 8 12 16 15 11 11 12 12 11 13 15 13 14 12 10 12 11 8 8 9 9 8 6 2 7 14 11 8 2 5 5 -3 11 16 2 5 5 3 3 1 4 3 7 3 3 11 7 5 4 2 3 1 4 3 4 8 3 9 17 9 5 6 8 8 5 4
6 7 7 6 6 6 7 8 9 8 6 4 2 3 5 6 6 4 5 4 3 6 9 13 16 13 9 10 12 14 11 10 13 12 13 13 11 12 11 9 7 8 11 8 6 7 13 17 11 2 2 9 5 -2 7 8 8 13 5 1 4 5 5 4 7 4 5 10 5 5 6 3 5 2 4 5 4 7 7 13 11 7 13 7 5 8 3 4
7 7 7 7 6 6 7 8 9 8 5 3 3 4 6 6 5 5 5 4 4 7 10 15 17 11 8 11 13 15 13 11 12 12 12 12 11 12 12 9 7 8 10 9 9 12 16 15 7 -1 5 13 8 5 5 2 13 17 2 1 7 5 3 3 5 3 5 10 5 6 7 8 11 6 4 3 2 2 4 15 10 7 21 10 4 9 3 5
8 8 7 7 7 7 7 8 9 7 4 3 4 5 6 6 5 6 5 4 6 8 11 17 15 8 8 12 13 14 15 13 13 14 13 13 12 13 14 11 8 9 9 10 10 11 11 9 7 3 5 11 7 5 8 8 14 15 5 2 3 2 2 4 6 4 4 5 4 6 7 9 11 8 6 4 5 1 -5 11 15 7 17 11 2 7 5 6
8 8 8 8 8 7 8 9 8 5 4 3 4 6 6 6 6 5 4 5 7 8 13 17 11 6 10 14 14 15 14 13 13 13 14 14 14 15 16 14 9 8 8 9 11 13 10 3 6 6 1 4 4 2 9 12 9 8 7 2 -1 2 3 3 5 6 5 3 3 6 6 6 9 8 9 7 9 9 -2 6 17 6 7 13 8 8 7 5
8 8 8 8 8 9 9 9 7 5 4 4 5 6 6 6 6 5 5 6 6 9 14 16 10 5 11 16 17 16 14 15 14 13 13 13 15 16 16 16 12 9 9 9 10 12 11 7 6 4 2 8 10 7 9 11 9 5 4 4 4 3 1 3 3 2 4 6 6 6 4 6 10 7 9 10 7 10 3 4 15 6 2 12 13 12 6 4
8 8 8 9 9 9 9 8 6 4 4 5 6 6 6 6 6 5 6 6 7 10 13 14 11 5 10 17 16 14 14 16 16 14 15 15 15 15 16 18 16 13 11 11 12 13 12 12 11 7 4 6 7 9 12 15 14 7 4 6 7 1 -4 1 4 2 4 6 6 6 4 4 10 8 8 12 8 7 5 4 10 7 3 6 12 15 6 3
8 8 8 9 10 10 9 7 5 4 5 6 6 6 7 6 6 6 7 7 8 11 11 13 13 6 8 17 17 14 13 14 17 15 14 16 15 15 16 16 18 19 15 14 14 14 14 12 14 11 5 3 3 5 12 14 9 5 7 9 8 3 -4 -3 3 7 7 6 6 7 6 1 5 9 6 10 11 8 5 4 5 9 9 1 7 17 7 2
9 9 9 9 10 9 7 6 5 5 6 5 6 7 6 6 6 6 6 8 9 10 11 11 11 7 7 15 17 14 13 13 14 14 13 14 13 14 14 14 16 17 16 17 15 14 16 15 15 13 7 8 8 2 2 7 6 5 6 6 6 4 -1 -3 1 7 7 7 7 6 7 3 0 5 6 7 9 8 8 7 4 8 15 2 0 21 14 1
9 9 9 9 9 7 6 6 4 5 6 5 7 7 7 7 7 7 7 8 10 10 11 10 8 9 10 13 15 14 13 12 11 14 14 11 12 13 12 12 15 14 11 15 18 17 17 18 17 14 10 12 12 1 -7 -4 3 7 5 5 8 6 2 0 -2 4 7 4 6 5 5 5 0 1 3 5 8 8 8 10 6 4 16 7 -2 22 21 -0
9 9 9 8 7 6 6 5 5 6 5 6 7 7 7 7 6 8 7 8 10 10 11 10 9 12 12 10 14 14 10 11 13 13 12 11 12 12 12 10 12 17 14 15 21 15 14 20 16 10 10 10 11 5 -3 -3 -1 3 5 3 7 6 4 7 2 2 7 3 4 8 9 6 2 1 2 3 5 7 7 10 9 4 15 9 -1 21 21 0
9 9 8 7 7 6 6 5 6 5 5 7 7 7 8 7 8 8 7 9 9 10 12 11 10 12 11 10 13 13 10 11 13 11 9 14 12 6 11 10 8 14 12 13 14 4 3 11 10 9 8 5 9 8 2 1 -4 0 8 2 2 4 0 8 8 1 1 1 2 7 10 9 4 3 4 2 3 5 5 8 9 7 15 11 3 20 17 0
9 9 7 7 6 6 5 5 5 4 6 7 6 8 8 8 9 7 8 9 8 11 13 13 10 9 12 15 12 10 11 10 12 13 11 14 12 5 8 10 12 13 9 12 12 6 4 4 7 7 3 6 10 9 9 6 -3 6 22 14 4 2 2 10 14 8 3 1 1 0 6 11 8 6 6 3 6 7 3 7 9 7 13 12 9 17 12 -0
9 8 7 7 6 6 6 5 5 5 7 6 6 7 7 9 9 8 10 9 9 11 11 14 14 12 13 12 11 12 10 8 13 17 13 14 12 6 4 7 15 13 7 9 10 13 12 4 5 -0 2 20 14 4 12 13 8 14 26 27 14 6 12 15 13 15 15 9 6 0 3 13 12 8 7 4 6 7 3 6 11 9 11 14 13 16 12 5
8 8 8 7 6 7 5 5 5 6 6 5 6 7 8 9 7 9 10 7 11 12 9 12 14 16 10 0 8 16 10 8 14 16 13 16 13 7 7 7 12 11 4 -0 -6 1 10 10 16 9 7 21 14 6 10 11 14 13 16 28 19 5 8 7 -1 7 14 10 10 8 3 9 10 5 2 3 6 7 5 5 10 10 11 17 17 13 13 11
8 8 8 6 7 6 5 5 5 5 5 5 7 7 8 10 8 10 9 5 12 12 8 10 10 15 11 2 7 15 16 13 13 15 12 15 16 10 9 12 17 16 8 6 1 0 8 11 13 8 3 6 7 13 14 11 10 2 2 13 9 3 8 4 -6 -3 5 5 10 13 5 2 8 8 3 2 4 7 7 7 11 12 11 17 18 13 12 12
7 8 8 7 7 5 5 6 4 5 5 5 7 6 7 9 9 9 8 7 11 11 12 12 11 12 7 7 9 11 17 12 7 14 11 12 18 9 9 17 21 22 14 10 7 2 9 14 9 3 6 8 7 11 15 12 5 -1 -1 0 -0 4 8 10 5 1 3 5 10 17 15 8 5 7 9 7 5 6 7 6 6 9 12 14 16 17 15 13
7 7 7 7 7 6 7 5 4 5 4 4 5 6 9 9 9 9 8 8 8 12 17 11 10 13 6 6 9 9 15 10 7 14 10 11 15 7 11 18 17 25 23 7 2 10 20 22 17 14 12 9 6 8 16 14 -1 -4 -0 0 4 3 -1 8 14 9 6 6 12 17 21 21 13 9 10 7 5 5 6 8 2 -1 6 10 14 18 16 14
7 7 7 7 6 7 6 5 6 4 3 6 5 7 10 8 10 9 6 10 8 11 17 10 7 14 10 4 4 11 17 13 11 12 9 11 11 7 14 20 20 29 23 0 -5 11 21 17 17 22 11 3 7 9 22 30 8 -6 -1 3 8 7 -1 0 4 8 5 0 2 5 10 15 15 15 11 6 7 7 6 11 9 1 1 5 10 15 15 16
7 7 7 7 7 6 6 6 6 3 3 7 5 6 9 8 11 7 6 12 8 9 20 17 11 13 12 7 6 16 20 14 11 9 7 9 10 11 13 14 17 16 7 -3 -4 4 18 20 14 12 1 -5 10 13 16 27 13 1 5 4 7 14 9 -2 -2 3 -1 -1 9 15 16 14 12 17 17 11 8 7 5 7 10 8 5 5 8 10 12 16
6 8 7 8 8 6 6 6 5 5 4 5 5 6 8 8 10 8 9 10 4 9 16 13 11 4 3 9 11 16 20 14 11 8 5 6 9 11 9 10 12 7 -1 1 4 2 10 12 0 5 11 2 11 20 14 9 5 7 10 8 15 24 18 1 -3 2 2 13 26 20 14 13 9 12 14 15 12 5 2 4 7 10 8 6 5 6 9 12
6 8 7 8 8 7 7 7 6 6 4 5 5 6 7 9 10 8 8 8 7 11 6 2 4 -6 -4 14 13 12 19 16 15 15 7 5 9 9 4 2 4 3 -2 -2 2 -1 1 0 -10 2 23 21 20 26 20 10 6 7 9 13 16 19 26 18 10 21 22 17 16 5 3 9 7 4 5 14 21 11 1 0 3 8 9 8 7 6 8 9
6 7 8 8 8 8 8 7 7 6 5 5 5 6 8 9 10 7 5 7 8 7 4 4 3 -3 6 15 5 9 20 14 15 22 14 8 12 11 3 -0 1 2 1 1 2 1 0 -3 -10 -1 19 26 16 2 4 12 12 10 16 26 20 13 25 20 10 23 15 -1 4 1 -1 5 2 3 6 9 18 16 3 0 3 5 6 8 9 8 8 9
8 8 8 8 8 8 8 7 8 7 5 5 4 6 9 8 8 7 6 8 6 6 11 11 7 9 19 18 7 16 23 10 10 14 11 14 15 6 -0 3 9 11 9 7 2 1 4 -1 -6 2 11 11 -4 -18 -3 17 17 12 16 17 11 13 22 7 -2 13 5 -6 7 4 -2 4 2 4 10 6 13 17 4 -4 -1 3 5 5 7 6 7 10
9 9 9 8 8 8 7 7 8 6 5 5 5 7 9 8 7 8 9 8 6 9 13 11 9 15 22 18 9 11 9 3 7 6 2 9 10 5 9 12 15 18 13 7 5 5 8 7 2 2 3 3 0 -1 10 21 15 7 9 5 -4 6 22 10 -3 7 8 2 4 2 4 10 7 7 9 6 12 22 18 6 -0 1 4 4 5 5 5 8
8 9 8 8 8 7 7 7 6 6 6 5 5 8 10 9 9 10 6 3 7 11 10 4 1 8 15 9 -1 -2 -1 -1 5 12 13 8 1 7 20 17 15 18 5 -4 4 8 7 10 6 0 1 1 6 12 19 26 18 5 9 13 6 11 21 15 3 4 11 11 5 2 1 2 5 6 9 9 5 10 22 22 14 9 8 6 5 5 6 6
7 7 7 7 8 8 8 8 7 7 7 6 8 10 10 7 8 8 2 5 10 6 10 8 -5 1 16 11 -2 -7 -1 8 13 21 27 15 3 7 11 4 4 9 3 -3 0 1 3 9 5 2 2 -3 -0 12 17 20 16 8 8 6 4 15 20 16 14 7 8 13 8 3 -2 0 8 7 10 17 6 0 11 19 18 13 11 11 8 7 6 7
6 7 7 7 8 8 8 9 8 9 7 8 9 7 7 7 10 11 4 7 8 1 21 29 1 -2 17 17 8 -1 -1 13 14 14 17 5 -1 5 2 2 7 6 5 8 7 3 5 4 -1 -2 -0 -2 2 8 8 10 12 9 4 -3 -0 9 11 17 23 13 8 13 11 5 -3 -1 6 4 8 16 9 2 5 13 17 12 10 12 9 7 7 7
7 8 8 8 7 7 8 8 8 9 8 9 10 7 8 10 11 10 2 3 7 2 20 28 2 0 13 6 4 3 3 7 1 3 13 4 -0 4 2 6 11 8 7 10 11 7 1 -2 -3 -2 -2 0 5 6 6 10 13 7 4 10 16 8 4 15 19 13 14 16 18 16 6 -0 -2 -6 -1 8 12 11 8 9 11 9 10 14 11 7 5 5
8 8 8 8 8 7 7 8 7 10 9 10 11 7 7 9 7 9 3 3 8 3 8 14 7 8 6 -6 -2 4 5 7 1 4 12 6 2 5 7 5 1 6 17 19 16 9 -2 -6 -0 4 3 1 2 3 4 6 8 7 5 9 12 4 4 12 7 3 7 9 13 17 14 8 2 1 5 7 10 14 13 13 11 8 10 13 13 12 4 3
9 10 11 11 11 10 10 10 9 9 9 10 11 8 8 9 9 12 7 2 7 6 6 9 10 13 0 -11 1 8 4 7 4 1 6 6 -0 -5 -2 -2 -5 9 26 24 18 17 10 3 2 2 -1 -0 0 -2 1 8 8 3 -2 -2 -0 -1 1 5 3 2 2 5 10 12 13 13 9 11 15 7 0 -0 2 6 7 8 15 15 13 15 9 7
11 11 12 12 13 12 12 13 12 11 11 11 10 9 10 9 10 12 5 1 5 5 8 7 7 16 5 -13 -3 4 2 9 6 -5 -6 -3 -2 -4 -6 -4 1 11 19 18 17 17 15 13 12 6 -2 1 4 -6 -6 5 5 4 5 5 9 11 10 12 15 12 8 11 15 12 12 13 11 11 12 10 8 3 1 5 2 1 12 19 17 16 12 9
11 10 11 11 12 11 10 11 12 12 12 10 8 9 10 9 12 10 0 1 3 2 16 24 14 15 9 -6 2 5 -4 2 6 -0 -4 -2 8 13 7 9 13 6 1 8 16 17 13 13 15 8 -1 2 3 -8 -7 3 2 5 11 10 13 19 21 25 26 20 14 9 7 9 11 12 12 13 11 12 13 8 6 11 10 7 10 15 16 16 16 12
13 13 14 17 18 17 15 13 13 13 12 10 7 7 8 8 12 14 6 4 4 2 17 27 16 15 15 5 10 12 -2 -3 3 4 5 6 11 9 2 8 12 7 6 10 13 15 13 12 16 14 6 4 2 -5 -3 1 -2 -2 2 4 3 3 8 16 14 9 14 17 12 10 11 9 9 12 13 13 13 12 10 7 9 15 16 16 15 12 15 17
17 16 15 16 16 18 19 16 13 13 14 12 9 6 6 5 6 9 7 4 3 2 8 11 7 13 17 8 9 9 -2 -1 6 2 -1 -0 3 4 3 5 4 5 11 12 11 14 11 7 15 23 20 8 -1 -1 3 1 -3 -3 0 2 2 2 7 11 4 -2 9 21 16 8 7 6 7 10 13 13 12 13 15 10 5 6 11 16 20 15 12 14
13 12 10 9 11 14 16 15 14 15 16 15 13 8 6 7 3 2 3 2 1 3 7 7 5 10 11 6 11 12 -2 -3 5 4 -0 -1 -0 1 3 5 4 7 12 15 17 19 14 8 10 21 29 21 6 0 -1 -1 -1 -2 -1 1 1 1 3 5 5 6 10 10 4 3 8 9 10 13 14 15 14 13 16 17 10 3 -3 -3 9 19 17 11
9 9 9 9 10 13 15 15 15 18 18 16 16 12 7 9 10 10 10 6 4 6 10 12 8 8 9 5 11 19 10 -1 0 4 7 7 1 -4 -3 1 4 7 11 16 17 15 14 14 12 10 12 18 20 8 -6 -2 6 2 -2 1 1 -2 0 8 14 14 14 12 9 12 15 12 13 17 17 15 12 10 12 15 15 13 4 -9 -6 11 19 15
11 10 12 11 10 13 14 13 14 17 19 20 22 19 11 6 8 13 13 9 9 11 13 15 12 9 14 15 16 26 27 14 5 6 8 10 7 3 1 2 3 5 10 13 10 10 12 14 15 11 3 5 18 15 1 4 12 6 1 2 0 -4 -2 9 13 8 9 12 11 12 13 12 13 14 16 17 14 10 11 12 13 15 13 6 0 3 12 16
15 14 13 13 12 13 13 12 11 12 15 18 22 24 20 10 4 8 11 6 4 6 6 9 13 12 14 11 5 11 21 18 12 11 9 6 5 5 2 -1 -0 6 16 20 18 18 19 15 12 15 13 11 16 14 5 4 9 11 11 8 5 1 1 10 17 13 9 7 7 9 11 11 9 7 9 14 15 15 14 12 13 13 13 15 13 6 7 10
16 15 13 12 12 12 13 11 9 9 10 13 17 23 27 22 10 7 12 9 5 6 6 8 14 17 17 11 1 -1 5 8 9 14 17 12 4 -1 -1 1 6 10 9 8 11 13 16 16 11 10 13 17 20 18 7 4 6 5 5 8 9 5 4 12 18 12 6 7 9 10 10 7 7 8 9 11 13 17 17 15 16 16 14 14 16 15 9 5
14 14 13 14 14 13 14 13 9 8 9 11 12 14 21 28 19 4 3 11 14 11 8 8 12 14 15 17 14 6 2 4 5 6 12 17 13 5 4 4 5 6 -0 -2 6 10 9 11 11 11 14 17 20 18 10 10 12 4 -3 4 8 4 2 9 13 9 8 13 11 7 6 7 8 9 10 12 13 14 16 17 16 17 17 13 12 17 15 6
12 12 12 15 17 16 16 16 14 12 10 9 8 6 9 19 20 8 1 5 8 3 -1 3 7 2 4 15 21 11 -2 -1 6 3 -1 9 19 18 15 11 5 3 5 6 8 8 6 9 13 12 11 9 12 15 13 12 14 7 2 4 7 6 6 7 8 8 9 11 9 5 5 8 9 9 9 11 13 14 16 18 18 19 18 13 9 14 19 12
12 12 13 16 18 17 16 15 15 14 10 8 7 7 8 12 17 18 12 4 2 -0 -2 2 5 0 1 12 20 12 -2 -5 3 3 -4 1 13 13 8 8 5 3 7 8 7 7 6 11 17 13 7 5 7 12 16 19 20 14 6 6 8 10 12 13 14 13 8 5 6 6 7 8 6 6 8 10 13 17 19 18 17 19 18 13 11 13 19 18
Height
5917 5916 5916 5916 5915 5915 5915 5914 5914 5913 5913 5913 5912 5912 5911 5910 5910 5909 5908 5907 5906 5905 5904 5903 5902 5900 5899 5898 5897 5896 5895 5894 5893 5893 5894 5894 5893 5894 5894 5894 5894 5894 5894 5894 5894 5894 5894 5894 5895 5896 5896 5897 5897 5897 5897 5896 5895 5894 5894 5894 5894 5893 5894 5894 5895 5896 5897 5897 5898 5898 5897 5898 5900 5901 5899 5899 5899 5900 5901 5901 5902 5902 5903 5903 5903 5902 5902 5901
5917 5916 5916 5916 5915 5915 5914 5914 5913 5913 5913 5912 5912 5911 5911 5910 5909 5908 5907 5906 5905 5904 5903 5902 5900 5899 5897 5896 5895 5893 5892 5891 5891 5892 5892 5892 5892 5892 5893 5893 5893 5893 5893 5893 5894 5894 5894 5894 5895 5895 5895 5896 5897 5897 5897 5896 5895 5895 5895 5895 5895 5894 5895 5896 5896 5897 5897 5897 5898 5898 5898 5899 5901 5900 5899 5899 5899 5899 5900 5901 5901 5901 5902 5903 5903 5903 5902 5901
5917 5916 5916 5915 5915 5915 5914 5914 5913 5913 5912 5912 5911 5911 5910 5909 5908 5908 5907 5905 5904 5903 5902 5901 5899 5897 5896 5894 5893 5891 5890 5890 5890 5890 5890 5890 5890 5891 5891 5892 5892 5892 5892 5892 5893 5893 5893 5893 5894 5895 5895 5896 5896 5896 5897 5895 5895 5896 5896 5896 5895 5895 5896 5897 5897 5897 5898 5898 5898 5899 5900 5900 5900 5900 5899 5899 5899 5900 5900 5901 5901 5900 5901 5902 5903 5903 5902 5901
5917 5916 5916 5915 5915 5914 5914 5913 5913 5912 5912 5911 5910 5910 5909 5908 5908 5907 5906 5904 5903 5902 5901 5899 5897 5896 5894 5892 5891 5889 5888 5888 5888 5888 5889 5889 5889 5889 5890 5890 5891 5891 5891 5891 5892 5892 5893 5893 5894 5894 5895 5896 5896 5896 5896 5895 5895 5896 5897 5897 5895 5895 5896 5897 5897 5898 5899 5899 5899 5899 5900 5899 5899 5900 5900 5899 5899 5900 5900 5900 5901 5901 5901 5901 5902 5902 5902 5902
5916 5916 5915 5915 5914 5914 5913 5913 5912 5911 5911 5910 5910 5909 5908 5907 5907 5905 5904 5903 5902 5901 5899 5897 5895 5894 5892 5890 5889 5887 5886 5886 5886 5886 5887 5887 5887 5888 5888 5889 5889 5890 5890 5890 5891 5891 5892 5892 5893 5894 5895 5897 5896 5895 5895 5894 5894 5896 5898 5898 5896 5896 5896 5897 5898 5898 5899 5899 5900 5900 5900 5900 5900 5900 5900 5900 5900 5900 5900 5900 5900 5901 5900 5900 5900 5900 5901 5901
5916 5915 5915 5914 5914 5913 5913 5912 5911 5911 5910 5909 5909 5908 5907 5906 5905 5904 5903 5902 5901 5899 5897 5896 5894 5892 5890 5888 5886 5885 5884 5885 5884 5884 5884 5885 5886 5886 5887 5888 5888 5889 5889 5889 5890 5890 5891 5891 5892 5892 5894 5895 5894 5894 5894 5894 5895 5896 5898 5898 5896 5896 5897 5898 5899 5899 5899 5900 5900 5900 5900 5901 5901 5901 5901 5901 5900 5900 5901 5900 5900 5900 5899 5899 5899 5899 5899 5900
5916 5915 5914 5914 5913 5912 5912 5911 5910 5910 5909 5909 5908 5907 5906 5905 5904 5903 5902 5901 5899 5898 5896 5894 5892 5890 5888 5886 5885 5883 5883 5883 5882 5882 5883 5883 5884 5885 5885 5886 5886 5887 5888 5888 5888 5889 5889 5890 5891 5891 5892 5893 5893 5893 5893 5893 5894 5896 5897 5897 5896 5896 5898 5899 5899 5900 5900 5900 5900 5900 5901 5901 5901 5901 5901 5901 5901 5901 5901 5900 5899 5899 5899 5899 5899 5899 5899 5899
5915 5915 5914 5913 5912 5912 5911 5910 5910 5909 5908 5908 5907 5906 5905 5904 5903 5902 5900 5899 5898 5896 5894 5892 5890 5888 5887 5885 5883 5882 5882 5881 5881 5881 5881 5882 5882 5883 5884 5884 5885 5886 5886 5887 5887 5887 5888 5889 5890 5891 5892 5892 5892 5893 5893 5893 5893 5894 5895 5896 5896 5896 5898 5899 5900 5900 5901 5900 5900 5901 5901 5901 5901 5901 5901 5901 5901 5902 5901 5900 5900 5899 5899 5899 5899 5899 5899 5899
5915 5914 5913 5912 5912 5911 5910 5910 5909 5908 5907 5907 5906 5905 5904 5903 5902 5900 5899 5898 5896 5894 5892 5890 5889 5887 5885 5884 5883 5881 5879 5880 5880 5879 5880 5880 5880 5881 5882 5882 5883 5884 5885 5886 5886 5886 5887 5888 5889 5891 5892 5892 5891 5892 5893 5892 5892 5893 5894 5895 5896 5897 5898 5899 5901 5901 5901 5900 5900 5900 5900 5900 5900 5901 5901 5901 5901 5901 5901 5901 5900 5899 5899 5899 5899 5899 5899 5899
5914 5913 5912 5912 5911 5910 5909 5909 5908 5907 5906 5906 5905 5904 5903 5901 5900 5899 5898 5896 5895 5893 5891 5889 5887 5885 5884 5883 5882 5880 5877 5877 5879 5878 5878 5878 5879 5879 5880 5881 5882 5882 5883 5884 5884 5885 5887 5888 5889 5890 5891 5891 5890 5890 5892 5892 5892 5893 5894 5895 5896 5897 5898 5900 5901 5900 5900 5900 5900 5900 5900 5900 5900 5900 5901 5901 5901 5900 5900 5900 5900 5900 5899 5899 5899 5899 5900 5900
5913 5912 5911 5911 5910 5909 5908 5908 5907 5906 5905 5904 5903 5902 5901 5900 5899 5898 5896 5895 5893 5891 5889 5887 5885 5884 5883 5882 5881 5879 5876 5876 5877 5877 5876 5877 5877 5878 5878 5879 5880 5881 5882 5883 5884 5885 5887 5889 5888 5889 5889 5890 5890 5890 5892 5893 5893 5894 5894 5895 5896 5897 5898 5899 5899 5899 5900 5900 5900 5900 5900 5900 5900 5900 5900 5901 5901 5900 5900 5899 5899 5899 5899 5899 5900 5900 5900 5900
5912 5911 5910 5909 5909 5908 5907 5906 5906 5905 5904 5903 5902 5901 5900 5899 5898 5896 5895 5893 5891 5890 5888 5886 5884 5882 5881 5880 5879 5878 5876 5874 5875 5875 5875 5875 5875 5876 5876 5877 5878 5879 5880 5881 5883 5885 5887 5889 5888 5888 5889 5890 5890 5890 5891 5893 5893 5894 5894 5895 5896 5897 5898 5899 5899 5898 5899 5900 5899 5899 5900 5900 5900 5900 5900 5900 5901 5900 5900 5899 5899 5899 5899 5899 5900 5900 5900 5900
5911 5910 5909 5908 5908 5907 5906 5905 5904 5904 5903 5902 5901 5900 5899 5897 5896 5895 5893 5892 5890 5888 5886 5884 5882 5881 5880 5878 5877 5876 5875 5874 5873 5873 5873 5873 5873 5874 5875 5875 5876 5877 5878 5880 5881 5883 5886 5887 5887 5888 5888 5889 5889 5888 5889 5891 5893 5894 5894 5895 5897 5897 5897 5898 5898 5898 5899 5899 5899 5899 5899 5899 5899 5900 5899 5900 5900 5900 5900 5899 5899 5898 5898 5899 5899 5900 5900 5900
5909 5909 5908 5907 5906 5905 5905 5904 5903 5902 5901 5901 5900 5898 5897 5896 5895 5893 5892 5890 5888 5886 5885 5883 5881 5880 5878 5877 5875 5875 5874 5873 5872 5871 5871 5872 5872 5872 5873 5874 5875 5876 5877 5878 5880 5882 5883 5885 5886 5886 5886 5887 5887 5888 5889 5890 5892 5894 5894 5895 5896 5896 5897 5897 5898 5898 5899 5899 5899 5899 5899 5898 5899 5899 5899 5899 5899 5899 5899 5899 5898 5898 5898 5898 5899 5899 5899 5899
5908 5907 5907 5906 5905 5904 5903 5903 5902 5901 5900 5899 5898 5897 5896 5895 5893 5892 5890 5889 5887 5885 5883 5882 5880 5878 5877 5875 5874 5873 5872 5872 5871 5871 5870 5870 5871 5871 5872 5872 5873 5874 5875 5877 5878 5880 5882 5883 5884 5885 5886 5887 5888 5888 5889 5889 5890 5892 5893 5894 5895 5896 5896 5896 5897 5898 5899 5899 5898 5898 5898 5898 5898 5898 5898 5898 5898 5898 5898 5898 5898 5898 5898 5897 5897 5898 5899 5899
5907 5906 5905 5905 5904 5903 5902 5901 5901 5900 5899 5898 5897 5896 5894 5893 5892 5890 5889 5887 5885 5884 5882 5881 5879 5878 5876 5875 5873 5872 5871 5870 5870 5869 5869 5869 5869 5870 5870 5871 5872 5873 5874 5875 5877 5878 5880 5881 5883 5884 5885 5887 5888 5888 5888 5888 5889 5890 5891 5893 5894 5895 5895 5895 5896 5897 5898 5898 5898 5898 5897 5897 5898 5897 5897 5897 5897 5897 5897 5897 5898 5897 5897 5897 5897 5897 5898 5899
5906 5905 5904 5903 5903 5902 5901 5900 5899 5899 5898 5897 5896 5894 5893 5892 5890 5889 5888 5886 5884 5882 5881 5879 5878 5876 5875 5874 5872 5871 5870 5870 5869 5869 5868 5868 5868 5869 5869 5870 5871 5872 5873 5874 5875 5877 5878 5880 5882 5883 5885 5886 5887 5887 5887 5888 5888 5888 5889 5891 5892 5893 5893 5894 5895 5896 5897 5897 5897 5897 5896 5897 5897 5896 5896 5896 5896 5896 5896 5897 5897 5897 5896 5896 5896 5897 5897 5898
5904 5903 5903 5902 5901 5901 5900 5899 5898 5897 5896 5895 5894 5893 5892 5890 5889 5887 5886 5884 5883 5881 5879 5878 5877 5875 5874 5873 5872 5871 5870 5869 5868 5868 5868 5868 5868 5868 5868 5869 5870 5870 5871 5873 5874 5876 5877 5879 5881 5883 5884 5885 5886 5886 5886 5886 5887 5887 5887 5888 5889 5891 5891 5892 5894 5895 5895 5896 5896 5896 5896 5895 5896 5896 5895 5896 5896 5896 5896 5896 5897 5896 5896 5896 5896 5896 5896 5897
5903 5902 5901 5901 5900 5899 5899 5898 5897 5896 5895 5894 5893 5891 5890 5889 5887 5886 5884 5883 5881 5880 5878 5877 5876 5875 5874 5872 5871 5870 5869 5868 5868 5867 5867 5867 5867 5867 5867 5868 5869 5869 5870 5872 5873 5875 5876 5879 5880 5882 5882 5883 5885 5884 5884 5884 5884 5885 5885 5885 5887 5888 5889 5891 5892 5893 5894 5895 5895 5895 5895 5895 5895 5895 5895 5895 5895 5895 5895 5896 5896 5896 5895 5895 5896 5895 5896 5896
5902 5901 5900 5899 5899 5898 5897 5897 5896 5895 5894 5893 5892 5890 5889 5887 5886 5884 5883 5882 5880 5879 5878 5876 5874 5874 5873 5871 5870 5869 5868 5868 5867 5867 5867 5867 5867 5867 5867 5868 5868 5869 5869 5871 5873 5874 5875 5877 5879 5880 5880 5881 5882 5882 5882 5882 5882 5883 5884 5884 5885 5886 5888 5890 5891 5891 5892 5893 5894 5894 5894 5894 5894 5894 5894 5895 5895 5895 5895 5895 5895 5895 5895 5895 5895 5895 5895 5896
5901 5900 5899 5898 5897 5897 5896 5895 5894 5893 5892 5891 5890 5889 5888 5886 5884 5883 5882 5880 5879 5878 5877 5875 5873 5873 5872 5871 5869 5869 5868 5867 5867 5866 5867 5867 5867 5867 5868 5868 5868 5868 5869 5870 5872 5872 5873 5875 5876 5877 5878 5878 5879 5880 5880 5880 5881 5883 5884 5884 5884 5886 5887 5889 5890 5890 5890 5891 5892 5892 5892 5893 5893 5893 5893 5894 5894 5894 5894 5894 5894 5894 5894 5894 5894 5894 5894 5895
5899 5898 5898 5897 5896 5895 5895 5894 5893 5892 5891 5890 5889 5888 5887 5885 5884 5882 5881 5879 5878 5877 5875 5874 5873 5871 5870 5869 5868 5868 5868 5867 5867 5866 5867 5867 5867 5867 5868 5869 5869 5868 5869 5870 5872 5872 5871 5872 5874 5875 5876 5877 5879 5879 5880 5880 5882 5883 5884 5884 5884 5885 5886 5888 5889 5888 5888 5889 5890 5891 5891 5891 5892 5892 5892 5893 5894 5894 5893 5893 5893 5893 5893 5893 5893 5893 5894 5894
5898 5897 5896 5895 5894 5894 5893 5892 5891 5891 5890 5889 5888 5887 5886 5884 5883 5882 5880 5879 5877 5876 5875 5874 5873 5872 5870 5868 5867 5868 5868 5867 5867 5867 5867 5867 5867 5867 5868 5869 5869 5869 5869 5869 5870 5872 5871 5872 5873 5874 5876 5876 5878 5879 5880 5880 5882 5883 5883 5883 5884 5883 5885 5886 5886 5885 5885 5886 5888 5889 5890 5890 5890 5890 5891 5892 5892 5892 5892 5893 5892 5893 5893 5893 5893 5893 5893 5894
5896 5895 5895 5894 5893 5892 5891 5891 5890 5889 5888 5887 5886 5885 5884 5883 5882 5881 5879 5878 5876 5875 5873 5873 5872 5871 5869 5868 5867 5868 5867 5867 5867 5866 5866 5866 5867 5867 5868 5868 5869 5869 5869 5869 5869 5870 5872 5873 5873 5875 5875 5876 5877 5877 5878 5879 5881 5881 5881 5880 5881 5881 5882 5883 5883 5883 5883 5884 5886 5887 5888 5889 5889 5889 5890 5890 5890 5890 5891 5891 5891 5891 5892 5892 5892 5892 5893 5894
5895 5894 5893 5892 5891 5891 5890 5889 5888 5887 5887 5886 5885 5884 5882 5881 5880 5879 5878 5877 5876 5874 5872 5871 5870 5869 5868 5867 5867 5867 5866 5867 5866 5865 5865 5866 5866 5867 5867 5868 5869 5869 5869 5869 5869 5870 5871 5873 5873 5874 5874 5874 5875 5875 5877 5878 5879 5879 5878 5878 5878 5878 5879 5880 5881 5881 5881 5882 5883 5885 5886 5887 5886 5887 5888 5889 5889 5889 5889 5890 5890 5890 5890 5891 5891 5891 5892 5894
5893 5892 5891 5890 5890 5889 5888 5887 5886 5886 5885 5884 5883 5882 5881 5880 5879 5878 5877 5876 5875 5874 5872 5870 5869 5868 5867 5867 5868 5867 5866 5866 5866 5865 5865 5866 5866 5866 5867 5868 5868 5868 5868 5868 5869 5870 5871 5872 5872 5872 5872 5872 5873 5874 5876 5877 5877 5876 5875 5876 5877 5877 5878 5879 5879 5880 5880 5881 5881 5882 5884 5884 5884 5885 5886 5887 5887 5887 5888 5888 5889 5889 5889 5890 5890 5890 5891 5893
5891 5890 5889 5888 5888 5887 5886 5886 5885 5884 5883 5882 5882 5881 5879 5878 5877 5876 5875 5875 5874 5873 5871 5870 5869 5868 5867 5867 5867 5867 5866 5865 5865 5865 5865 5865 5865 5865 5866 5867 5868 5868 5867 5867 5869 5871 5871 5871 5871 5871 5871 5872 5872 5874 5875 5875 5875 5874 5873 5875 5877 5877 5877 5878 5878 5879 5879 5879 5880 5881 5881 5882 5883 5884 5885 5886 5886 5886 5887 5887 5887 5887 5888 5889 5889 5889 5890 5891
5888 5888 5887 5886 5885 5885 5884 5884 5883 5882 5881 5881 5880 5879 5878 5877 5876 5875 5874 5873 5872 5872 5872 5870 5868 5868 5867 5866 5866 5866 5866 5865 5865 5865 5865 5865 5866 5866 5866 5866 5868 5868 5867 5867 5869 5870 5870 5870 5871 5871 5871 5872 5873 5875 5876 5875 5874 5873 5872 5874 5877 5877 5877 5877 5878 5879 5879 5879 5879 5879 5879 5880 5881 5883 5884 5884 5885 5885 5885 5885 5886 5886 5886 5887 5887 5888 5889 5890
5886 5885 5884 5884 5883 5882 5882 5881 5881 5880 5880 5879 5878 5878 5877 5875 5874 5873 5872 5872 5871 5871 5870 5869 5868 5867 5866 5866 5865 5865 5865 5865 5865 5865 5865 5865 5866 5866 5866 5866 5867 5868 5867 5867 5869 5870 5870 5870 5871 5872 5872 5872 5873 5874 5875 5874 5874 5873 5873 5873 5875 5877 5877 5876 5877 5878 5877 5878 5879 5878 5878 5878 5879 5880 5881 5882 5882 5882 5883 5883 5884 5884 5884 5885 5885 5886 5887 5888
5883 5882 5882 5881 5880 5880 5879 5879 5878 5878 5877 5877 5877 5876 5875 5874 5873 5871 5871 5870 5870 5869 5869 5868 5867 5866 5866 5865 5865 5865 5865 5864 5864 5864 5864 5865 5865 5865 5866 5866 5867 5867 5867 5867 5868 5869 5870 5870 5870 5871 5871 5871 5871 5872 5872 5873 5873 5872 5872 5872 5873 5875 5876 5876 5876 5877 5877 5878 5878 5877 5876 5876 5877 5877 5878 5879 5880 5880 5881 5881 5881 5882 5883 5883 5884 5884 5885 5886
5880 5879 5879 5878 5877 5877 5876 5876 5876 5875 5875 5875 5875 5874 5873 5872 5871 5870 5869 5869 5868 5868 5867 5867 5866 5866 5866 5866 5865 5865 5864 5864 5864 5864 5864 5865 5865 5865 5866 5866 5867 5867 5867 5866 5866 5867 5868 5868 5869 5870 5870 5870 5870 5870 5871 5871 5871 5870 5870 5871 5871 5872 5873 5874 5875 5875 5877 5877 5876 5874 5874 5874 5875 5876 5876 5877 5878 5878 5879 5879 5879 5880 5880 5881 5882 5882 5883 5884
5876 5876 5876 5875 5874 5874 5873 5873 5873 5873 5873 5873 5873 5872 5871 5870 5869 5868 5868 5867 5867 5866 5865 5865 5865 5865 5865 5864 5864 5864 5864 5863 5863 5864 5864 5865 5865 5865 5865 5865 5866 5867 5866 5865 5866 5866 5866 5867 5867 5869 5870 5870 5870 5870 5870 5870 5870 5869 5870 5870 5870 5870 5871 5872 5873 5873 5875 5874 5873 5873 5872 5873 5874 5874 5875 5875 5875 5876 5877 5877 5877 5878 5878 5878 5879 5880 5881 5881
5873 5872 5872 5872 5871 5871 5870 5870 5870 5870 5870 5871 5870 5870 5869 5868 5867 5866 5866 5865 5865 5865 5863 5863 5864 5864 5864 5863 5863 5863 5863 5863 5863 5864 5864 5865 5865 5864 5864 5864 5865 5865 5865 5865 5865 5865 5865 5865 5866 5868 5869 5869 5869 5869 5868 5868 5867 5868 5869 5869 5868 5869 5869 5870 5871 5871 5871 5871 5871 5871 5871 5871 5872 5871 5871 5872 5873 5873 5873 5873 5874 5875 5875 5876 5876 5877 5878 5879
5869 5868 5868 5868 5868 5867 5867 5867 5867 5867 5868 5868 5868 5868 5866 5865 5865 5864 5864 5864 5864 5863 5862 5862 5863 5863 5863 5863 5863 5863 5863 5862 5863 5863 5863 5863 5863 5863 5863 5863 5863 5864 5865 5865 5865 5865 5865 5864 5865 5867 5867 5868 5868 5867 5867 5866 5866 5866 5867 5867 5867 5868 5869 5868 5869 5869 5869 5870 5870 5870 5870 5870 5869 5868 5868 5870 5872 5872 5871 5871 5872 5872 5873 5874 5874 5875 5876 5877
5865 5865 5864 5864 5864 5864 5864 5864 5864 5864 5865 5865 5865 5865 5864 5863 5863 5862 5862 5862 5863 5862 5861 5862 5863 5863 5863 5863 5863 5862 5862 5863 5863 5863 5862 5862 5861 5862 5862 5863 5863 5864 5865 5866 5865 5865 5864 5864 5864 5865 5866 5867 5867 5865 5865 5865 5865 5864 5865 5865 5866 5867 5868 5868 5868 5868 5868 5870 5869 5868 5869 5868 5868 5867 5868 5869 5871 5871 5871 5871 5872 5873 5874 5875 5874 5874 5874 5874
5860 5860 5860 5860 5860 5860 5860 5860 5861 5861 5862 5862 5863 5863 5862 5861 5861 5861 5860 5861 5861 5860 5860 5860 5861 5863 5863 5862 5861 5862 5862 5862 5862 5862 5862 5861 5861 5860 5861 5862 5863 5864 5864 5865 5866 5866 5865 5865 5865 5865 5866 5867 5866 5864 5864 5864 5864 5863 5864 5864 5864 5866 5867 5867 5867 5867 5867 5868 5867 5867 5867 5867 5868 5867 5868 5868 5869 5869 5870 5870 5872 5873 5874 5875 5875 5874 5874 5874
5855 5855 5855 5855 5856 5856 5856 5857 5857 5858 5858 5859 5860 5860 5859 5859 5859 5859 5859 5859 5859 5859 5859 5859 5859 5861 5861 5860 5860 5860 5860 5860 5861 5861 5861 5860 5860 5860 5860 5861 5862 5863 5863 5864 5865 5866 5866 5865 5864 5864 5864 5865 5864 5863 5863 5862 5862 5863 5863 5863 5864 5865 5866 5866 5865 5865 5866 5865 5865 5865 5866 5866 5866 5866 5866 5866 5867 5867 5868 5868 5868 5869 5870 5872 5873 5873 5873 5873
5850 5850 5850 5851 5851 5851 5852 5853 5853 5854 5855 5856 5857 5857 5856 5857 5857 5856 5856 5856 5857 5857 5857 5857 5857 5859 5859 5858 5858 5858 5859 5859 5860 5860 5860 5860 5859 5859 5859 5860 5860 5861 5862 5863 5863 5864 5864 5864 5863 5863 5863 5863 5862 5862 5862 5861 5861 5862 5862 5862 5863 5864 5864 5864 5863 5864 5864 5863 5862 5863 5863 5863 5864 5864 5864 5865 5866 5866 5867 5866 5866 5866 5867 5868 5870 5871 5871 5870
5845 5845 5845 5846 5846 5846 5847 5848 5849 5850 5852 5853 5854 5853 5853 5854 5853 5853 5853 5854 5854 5854 5855 5855 5856 5857 5857 5856 5855 5856 5857 5858 5858 5858 5858 5859 5858 5857 5857 5857 5858 5860 5860 5860 5861 5861 5862 5862 5862 5862 5862 5861 5860 5861 5860 5860 5860 5860 5860 5860 5861 5861 5862 5862 5862 5862 5862 5861 5860 5860 5861 5860 5861 5861 5862 5863 5865 5865 5865 5864 5864 5864 5864 5865 5866 5867 5867 5867
5840 5839 5840 5841 5841 5840 5841 5843 5844 5846 5848 5850 5850 5850 5850 5850 5850 5850 5850 5851 5851 5852 5853 5853 5853 5855 5856 5855 5854 5855 5855 5856 5857 5857 5857 5857 5857 5857 5855 5855 5857 5858 5858 5858 5859 5860 5860 5861 5861 5861 5861 5860 5859 5859 5859 5858 5858 5858 5858 5858 5858 5858 5859 5860 5860 5861 5861 5860 5859 5858 5858 5857 5858 5859 5860 5861 5862 5862 5862 5862 5862 5862 5862 5863 5863 5864 5863 5863
5834 5834 5835 5836 5836 5836 5836 5838 5839 5840 5843 5846 5846 5846 5846 5847 5847 5847 5846 5847 5847 5849 5851 5851 5850 5852 5854 5853 5853 5854 5854 5854 5855 5855 5855 5854 5855 5856 5854 5854 5856 5856 5855 5856 5857 5858 5859 5860 5860 5860 5859 5859 5859 5858 5858 5857 5857 5857 5857 5857 5856 5856 5856 5856 5857 5857 5858 5857 5857 5856 5855 5855 5856 5857 5857 5858 5859 5859 5859 5859 5860 5860 5860 5860 5861 5861 5861 5861
5828 5828 5829 5831 5831 5831 5831 5832 5833 5835 5839 5841 5841 5842 5842 5843 5844 5843 5842 5843 5845 5845 5847 5848 5848 5849 5851 5851 5852 5852 5852 5853 5853 5853 5853 5852 5853 5853 5852 5852 5854 5854 5854 5854 5854 5855 5856 5858 5859 5859 5858 5858 5858 5857 5857 5856 5856 5856 5856 5856 5855 5855 5854 5854 5854 5854 5855 5855 5854 5854 5854 5854 5854 5854 5855 5856 5857 5856 5856 5856 5857 5858 5858 5858 5858 5858 5858 5858
5822 5822 5823 5825 5825 5825 5826 5827 5828 5830 5833 5835 5836 5837 5838 5839 5840 5840 5840 5841 5842 5842 5844 5845 5845 5846 5848 5850 5850 5850 5851 5852 5851 5850 5851 5851 5851 5851 5850 5850 5852 5853 5853 5852 5853 5853 5854 5855 5857 5857 5857 5858 5857 5856 5855 5854 5853 5854 5854 5853 5852 5852 5852 5853 5853 5853 5852 5852 5852 5852 5852 5852 5852 5852 5853 5853 5854 5853 5853 5854 5854 5855 5855 5855 5855 5855 5855 5856
5818 5817 5817 5818 5819 5820 5821 5823 5823 5824 5826 5829 5831 5832 5833 5835 5836 5836 5836 5838 5838 5839 5840 5842 5843 5844 5846 5847 5848 5848 5848 5850 5849 5847 5848 5849 5848 5848 5848 5848 5849 5850 5850 5850 5851 5852 5852 5853 5854 5855 5855 5856 5856 5855 5854 5852 5851 5852 5852 5850 5849 5848 5848 5849 5850 5850 5850 5850 5850 5849 5849 5850 5850 5850 5850 5850 5850 5850 5850 5851 5852 5852 5852 5852 5852 5852 5853 5854
5813 5813 5812 5813 5814 5816 5818 5818 5818 5819 5821 5823 5826 5827 5829 5831 5832 5832 5832 5833 5834 5835 5837 5839 5840 5842 5843 5843 5845 5845 5845 5846 5846 5845 5845 5846 5845 5845 5845 5846 5847 5848 5847 5848 5848 5848 5849 5850 5852 5853 5853 5853 5853 5853 5852 5850 5850 5850 5849 5848 5847 5846 5845 5845 5846 5847 5847 5847 5847 5847 5847 5847 5847 5847 5847 5847 5847 5846 5846 5847 5849 5849 5849 5849 5850 5850 5850 5851
5809 5809 5808 5809 5811 5814 5814 5814 5814 5815 5817 5819 5821 5823 5825 5828 5831 5830 5830 5830 5831 5833 5834 5835 5837 5838 5839 5840 5841 5842 5843 5843 5844 5843 5843 5844 5843 5843 5843 5845 5845 5846 5845 5845 5845 5845 5846 5847 5849 5850 5850 5850 5850 5850 5849 5848 5849 5848 5847 5846 5845 5844 5844 5844 5843 5843 5844 5845 5845 5845 5845 5845 5845 5845 5844 5843 5843 5843 5843 5844 5845 5846 5847 5847 5848 5848 5848 5849
5805 5805 5806 5805 5807 5809 5810 5809 5810 5812 5814 5815 5817 5819 5821 5825 5827 5827 5827 5828 5829 5830 5830 5831 5832 5835 5836 5837 5839 5840 5840 5841 5841 5841 5841 5842 5841 5841 5842 5842 5842 5843 5843 5843 5843 5843 5844 5845 5846 5848 5848 5848 5848 5848 5847 5847 5848 5848 5846 5845 5844 5843 5842 5842 5841 5840 5841 5842 5843 5843 5843 5842 5842 5842 5841 5840 5840 5839 5840 5841 5842 5843 5844 5845 5845 5846 5846 5846
5801 5801 5802 5801 5801 5804 5805 5804 5805 5808 5809 5810 5813 5815 5817 5820 5822 5823 5823 5824 5825 5826 5827 5827 5828 5830 5833 5834 5835 5836 5836 5837 5838 5838 5839 5840 5839 5839 5839 5839 5840 5840 5841 5841 5841 5841 5842 5842 5843 5845 5845 5846 5846 5846 5847 5847 5847 5847 5845 5844 5843 5841 5839 5840 5839 5838 5839 5840 5840 5840 5840 5840 5839 5838 5838 5838 5837 5837 5837 5837 5839 5840 5840 5841 5842 5843 5843 5844
5797 5796 5796 5796 5796 5798 5800 5800 5800 5802 5804 5805 5808 5812 5814 5816 5818 5818 5819 5820 5821 5821 5822 5824 5825 5826 5828 5830 5831 5831 5832 5833 5834 5835 5836 5837 5837 5836 5836 5836 5837 5838 5838 5839 5840 5840 5840 5841 5841 5842 5843 5843 5844 5844 5844 5844 5845 5845 5843 5841 5840 5838 5837 5838 5837 5836 5837 5839 5839 5839 5838 5838 5837 5836 5836 5835 5834 5834 5834 5834 5835 5836 5837 5837 5838 5840 5841 5841
5792 5791 5790 5791 5792 5793 5794 5796 5796 5797 5799 5801 5803 5806 5808 5811 5813 5813 5812 5814 5816 5816 5817 5820 5821 5822 5823 5826 5828 5829 5829 5829 5830 5832 5832 5834 5834 5834 5834 5835 5835 5836 5836 5836 5837 5838 5838 5839 5839 5840 5840 5840 5841 5841 5840 5840 5841 5840 5839 5839 5838 5836 5836 5836 5835 5835 5836 5837 5837 5836 5836 5835 5835 5835 5834 5833 5831 5830 5830 5830 5831 5832 5833 5834 5835 5836 5837 5838
5787 5787 5786 5787 5788 5789 5790 5791 5792 5793 5795 5796 5797 5799 5801 5803 5805 5806 5806 5807 5810 5811 5812 5814 5816 5816 5818 5821 5824 5825 5824 5824 5826 5828 5829 5831 5832 5832 5833 5833 5833 5833 5833 5833 5834 5835 5835 5836 5837 5837 5838 5838 5839 5839 5838 5838 5838 5837 5837 5837 5836 5835 5834 5834 5834 5834 5835 5835 5834 5834 5834 5834 5834 5833 5832 5830 5829 5827 5827 5827 5827 5828 5829 5830 5831 5832 5834 5834
5782 5782 5783 5783 5784 5785 5785 5786 5788 5789 5790 5790 5791 5793 5795 5797 5799 5801 5803 5804 5804 5806 5807 5808 5811 5812 5815 5818 5818 5818 5818 5819 5822 5824 5826 5828 5830 5830 5831 5832 5831 5831 5831 5830 5831 5832 5833 5834 5834 5835 5836 5836 5836 5837 5837 5837 5837 5836 5835 5834 5834 5833 5833 5834 5834 5834 5834 5833 5833 5833 5833 5832 5832 5831 5830 5828 5826 5825 5824 5824 5824 5825 5825 5826 5827 5828 5830 5831